| time (UTC) | temp C | wind direction | speed KPH | gust KPH | rain 1hr cm | rain 24hr cm | rain mn cm | humidity % | barometer mb |
| 20260507164031 | 15 | 325 | 0.0 | 3.2 | 0.00 | 0.00 | 0.00 | 62 | |
| 20260507163528 | 15 | 323 | 3.2 | 4.8 | 0.00 | 0.00 | 0.00 | 62 | |
| 20260507163027 | 15 | 1 | 1.6 | 4.8 | 0.00 | 0.00 | 0.00 | 60 | |
| 20260507162521 | 15 | 345 | 0.0 | 8.0 | 0.00 | 0.00 | 0.00 | 62 | |
| 20260507162018 | 15 | 0 | 3.2 | 4.8 | 0.00 | 0.00 | 0.00 | 61 | |
| 20260507161514 | 15 | 184 | 4.8 | 11.3 | 0.00 | 0.00 | 0.00 | 62 | |
| 20260507161012 | 15 | 330 | 1.6 | 3.2 | 0.00 | 0.00 | 0.00 | 63 | |
| 20260507160507 | 15 | 334 | 1.6 | 3.2 | 0.00 | 0.00 | 0.00 | 60 | |
| 20260507160004 | 15 | 330 | 1.6 | 3.2 | 0.00 | 0.00 | 0.00 | 62 | |
| 20260507155459 | 14 | 89 | 4.8 | 8.0 | 0.00 | 0.00 | 0.00 | 62 | |
| 20260507154956 | 14 | 42 | 1.6 | 4.8 | 0.00 | 0.00 | 0.00 | 62 | |
| 20260507154453 | 14 | 269 | 3.2 | 3.2 | 0.00 | 0.00 | 0.00 | 63 | |
| 20260507153950 | 14 | 107 | 3.2 | 4.8 | 0.00 | 0.00 | 0.00 | 62 | |
| 20260507153447 | 14 | 63 | 3.2 | 4.8 | 0.00 | 0.00 | 0.00 | 63 | |
| 20260507152943 | 14 | 333 | 1.6 | 4.8 | 0.00 | 0.00 | 0.00 | 64 | |
| 20260507152439 | 13 | 344 | 1.6 | 3.2 | 0.00 | 0.00 | 0.00 | 65 | |
| 20260507151935 | 13 | 222 | 0.0 | 1.6 | 0.00 | 0.00 | 0.00 | 65 | |
| 20260507151432 | 13 | 73 | 3.2 | 4.8 | 0.00 | 0.00 | 0.00 | 65 | |
| 20260507150929 | 13 | 293 | 1.6 | 3.2 | 0.00 | 0.00 | 0.00 | 66 | |
| 20260507150426 | 13 | 234 | 3.2 | 4.8 | 0.00 | 0.00 | 0.00 | 66 | |
| 20260507145922 | 13 | 358 | 1.6 | 4.8 | 0.00 | 0.00 | 0.00 | 65 | |
| 20260507145418 | 13 | 321 | 0.0 | 4.8 | 0.00 | 0.00 | 0.00 | 66 | |
| 20260507144915 | 13 | 27 | 0.0 | 4.8 | 0.00 | 0.00 | 0.00 | 65 | |
| 20260507144412 | 13 | 4 | 1.6 | 4.8 | 0.00 | 0.00 | 0.00 | 66 | |
| 20260507143909 | 12 | 248 | 4.8 | 11.3 | 0.00 | 0.00 | 0.00 | 66 | |
| 20260507143406 | 12 | 332 | 0.0 | 3.2 | 0.00 | 0.00 | 0.00 | 67 | |
| 20260507142903 | 12 | 353 | 1.6 | 3.2 | 0.00 | 0.00 | 0.00 | 67 | |
| 20260507142358 | 12 | 345 | 1.6 | 4.8 | 0.00 | 0.00 | 0.00 | 67 | |
| 20260507141856 | 12 | 358 | 3.2 | 3.2 | 0.00 | 0.00 | 0.00 | 67 | |
| 20260507141352 | 12 | 328 | 0.0 | 1.6 | 0.00 | 0.00 | 0.00 | 68 | |
| 20260507140849 | 12 | 324 | 0.0 | 1.6 | 0.00 | 0.00 | 0.00 | 67 | |
| 20260507140345 | 11 | 343 | 0.0 | 0.0 | 0.00 | 0.00 | 0.00 | 69 | |
| 20260507135844 | 11 | 332 | 0.0 | 0.0 | 0.00 | 0.00 | 0.00 | 70 | |
| 20260507135340 | 11 | 316 | 0.0 | 0.0 | 0.00 | 0.00 | 0.00 | 70 | |
| 20260507134838 | 11 | 321 | 3.2 | 4.8 | 0.00 | 0.00 | 0.00 | 70 | |
| 20260507134333 | 11 | 311 | 0.0 | 0.0 | 0.00 | 0.00 | 0.00 | 71 | |
| 20260507133829 | 10 | 334 | 0.0 | 0.0 | 0.00 | 0.00 | 0.00 | 72 | |
| 20260507133325 | 10 | 274 | 0.0 | 0.0 | 0.00 | 0.00 | 0.00 | 72 | |
| 20260507132824 | 10 | 352 | 0.0 | 1.6 | 0.00 | 0.00 | 0.00 | 72 | |
| 20260507132319 | 10 | 255 | 0.0 | 0.0 | 0.00 | 0.00 | 0.00 | 73 | |
| 20260507131817 | 10 | 13 | 0.0 | 0.0 | 0.00 | 0.00 | 0.00 | 73 | |
| 20260507131314 | 10 | 323 | 0.0 | 0.0 | 0.00 | 0.00 | 0.00 | 73 | |
| 20260507130810 | 9 | 318 | 0.0 | 3.2 | 0.00 | 0.00 | 0.00 | 74 | |
| 20260507130308 | 9 | 323 | 0.0 | 0.0 | 0.00 | 0.00 | 0.00 | 74 | |
| 20260507125807 | 9 | 317 | 0.0 | 0.0 | 0.00 | 0.00 | 0.00 | 75 | |
| 20260507125306 | 8 | 325 | 0.0 | 0.0 | 0.00 | 0.00 | 0.00 | 75 | |
| 20260507124801 | 8 | 340 | 0.0 | 0.0 | 0.00 | 0.00 | 0.00 | 74 | |
| 20260507124257 | 8 | 6 | 0.0 | 0.0 | 0.00 | 0.00 | 0.00 | 75 | |
| 20260507123756 | 8 | 340 | 0.0 | 0.0 | 0.00 | 0.00 | 0.00 | 75 | |
| 20260507123253 | 8 | 331 | 0.0 | 0.0 | 0.00 | 0.00 | 0.00 | 75 | |
| 20260507122748 | 7 | 335 | 0.0 | 0.0 | 0.00 | 0.00 | 0.00 | 76 | |
| 20260507122244 | 7 | 337 | 0.0 | 1.6 | 0.00 | 0.00 | 0.00 | 76 | |
| 20260507121740 | 7 | 344 | 0.0 | 0.0 | 0.00 | 0.00 | 0.00 | 76 | |
| 20260507121236 | 7 | 328 | 0.0 | 0.0 | 0.00 | 0.00 | 0.00 | 77 | |
| 20260507120732 | 7 | 336 | 0.0 | 0.0 | 0.00 | 0.00 | 0.00 | 77 | |
| 20260507120230 | 7 | 335 | 0.0 | 0.0 | 0.00 | 0.00 | 0.00 | 77 | |
| 20260507115726 | 7 | 337 | 0.0 | 0.0 | 0.00 | 0.00 | 0.00 | 77 | |
| 20260507115222 | 6 | 346 | 0.0 | 0.0 | 0.00 | 0.00 | 0.00 | 76 | |
| 20260507114717 | 7 | 342 | 0.0 | 0.0 | 0.00 | 0.00 | 0.00 | 76 | |
| 20260507114215 | 7 | 340 | 0.0 | 0.0 | 0.00 | 0.00 | 0.00 | 75 | |
| 20260507113712 | 6 | 337 | 0.0 | 0.0 | 0.00 | 0.00 | 0.00 | 75 | |
| 20260507113209 | 7 | 335 | 0.0 | 0.0 | 0.00 | 0.00 | 0.00 | 75 | |
| 20260507112707 | 7 | 335 | 0.0 | 0.0 | 0.00 | 0.00 | 0.00 | 75 | |
| 20260507112203 | 7 | 335 | 0.0 | 0.0 | 0.00 | 0.00 | 0.00 | 75 | |
| 20260507111701 | 7 | 338 | 0.0 | 0.0 | 0.00 | 0.00 | 0.00 | 75 | |
| 20260507111157 | 6 | 335 | 0.0 | 0.0 | 0.00 | 0.00 | 0.00 | 75 | |
| 20260507110653 | 6 | 335 | 0.0 | 0.0 | 0.00 | 0.00 | 0.00 | 74 | |
| 20260507110150 | 6 | 335 | 0.0 | 0.0 | 0.00 | 0.00 | 0.00 | 74 | |
| 20260507105647 | 6 | 339 | 0.0 | 0.0 | 0.00 | 0.00 | 0.00 | 74 | |
| 20260507105143 | 6 | 335 | 0.0 | 0.0 | 0.00 | 0.00 | 0.00 | 74 | |
| 20260507104641 | 6 | 335 | 0.0 | 0.0 | 0.00 | 0.00 | 0.00 | 73 | |
| 20260507104137 | 6 | 339 | 0.0 | 0.0 | 0.00 | 0.00 | 0.00 | 73 | |
| 20260507103633 | 6 | 339 | 0.0 | 0.0 | 0.00 | 0.00 | 0.00 | 73 | |
| 20260507103130 | 6 | 340 | 0.0 | 0.0 | 0.00 | 0.00 | 0.00 | 72 | |
| 20260507102626 | 6 | 339 | 0.0 | 0.0 | 0.00 | 0.00 | 0.00 | 72 | |
| 20260507102123 | 6 | 335 | 0.0 | 0.0 | 0.00 | 0.00 | 0.00 | 72 | |
| 20260507101618 | 6 | 335 | 0.0 | 0.0 | 0.00 | 0.00 | 0.00 | 72 | |
| 20260507101115 | 6 | 336 | 0.0 | 0.0 | 0.00 | 0.00 | 0.00 | 71 | |
| 20260507100612 | 7 | 335 | 0.0 | 0.0 | 0.00 | 0.00 | 0.00 | 70 | |
| 20260507100110 | 7 | 339 | 0.0 | 0.0 | 0.00 | 0.00 | 0.00 | 70 | |
| 20260507095608 | 7 | 340 | 0.0 | 0.0 | 0.00 | 0.00 | 0.00 | 69 | |
| 20260507095104 | 7 | 336 | 0.0 | 0.0 | 0.00 | 0.00 | 0.00 | 70 | |
| 20260507094600 | 7 | 335 | 0.0 | 0.0 | 0.00 | 0.00 | 0.00 | 70 | |
| 20260507094057 | 7 | 335 | 0.0 | 0.0 | 0.00 | 0.00 | 0.00 | 69 | |
| 20260507093555 | 7 | 335 | 0.0 | 0.0 | 0.00 | 0.00 | 0.00 | 69 | |
| 20260507093053 | 6 | 335 | 0.0 | 0.0 | 0.00 | 0.00 | 0.00 | 69 | |
| 20260507092549 | 6 | 335 | 0.0 | 0.0 | 0.00 | 0.00 | 0.00 | 69 | |
| 20260507092046 | 6 | 335 | 0.0 | 0.0 | 0.00 | 0.00 | 0.00 | 68 | |
| 20260507091543 | 7 | 335 | 0.0 | 0.0 | 0.00 | 0.00 | 0.00 | 68 | |
| 20260507091039 | 7 | 335 | 0.0 | 0.0 | 0.00 | 0.00 | 0.00 | 68 | |
| 20260507090535 | 7 | 335 | 0.0 | 0.0 | 0.00 | 0.00 | 0.00 | 68 | |
| 20260507090032 | 7 | 335 | 0.0 | 0.0 | 0.00 | 0.00 | 0.00 | 68 | |
| 20260507085529 | 7 | 335 | 0.0 | 0.0 | 0.00 | 0.00 | 0.00 | 68 | |
| 20260507085026 | 7 | 335 | 0.0 | 0.0 | 0.00 | 0.00 | 0.00 | 67 | |
| 20260507084522 | 7 | 335 | 0.0 | 0.0 | 0.00 | 0.00 | 0.00 | 67 | |
| 20260507084020 | 7 | 335 | 0.0 | 0.0 | 0.00 | 0.00 | 0.00 | 67 | |
| 20260507083516 | 7 | 335 | 0.0 | 0.0 | 0.00 | 0.00 | 0.00 | 66 | |
| 20260507083013 | 7 | 335 | 0.0 | 0.0 | 0.00 | 0.00 | 0.00 | 66 | |
| 20260507082509 | 7 | 335 | 0.0 | 0.0 | 0.00 | 0.00 | 0.00 | 67 | |
| 20260507082005 | 7 | 335 | 0.0 | 0.0 | 0.00 | 0.00 | 0.00 | 66 | |
| 20260507081501 | 7 | 335 | 0.0 | 0.0 | 0.00 | 0.00 | 0.00 | 66 | |
| 20260507080959 | 7 | 335 | 0.0 | 0.0 | 0.00 | 0.00 | 0.00 | 66 | |
| 20260507080454 | 7 | 335 | 0.0 | 0.0 | 0.00 | 0.00 | 0.00 | 66 | |
| 20260507075950 | 7 | 335 | 0.0 | 0.0 | 0.00 | 0.00 | 0.00 | 66 | |
| 20260507075446 | 7 | 335 | 0.0 | 0.0 | 0.00 | 0.00 | 0.00 | 66 | |
| 20260507074943 | 7 | 335 | 0.0 | 0.0 | 0.00 | 0.00 | 0.00 | 66 | |
| 20260507074440 | 7 | 335 | 0.0 | 0.0 | 0.00 | 0.00 | 0.00 | 65 | |
| 20260507073938 | 7 | 335 | 0.0 | 0.0 | 0.00 | 0.00 | 0.00 | 65 | |
| 20260507073434 | 7 | 335 | 0.0 | 0.0 | 0.00 | 0.00 | 0.00 | 65 | |
| 20260507072931 | 7 | 335 | 0.0 | 0.0 | 0.00 | 0.00 | 0.00 | 64 | |
| 20260507072428 | 7 | 335 | 0.0 | 0.0 | 0.00 | 0.00 | 0.00 | 64 | |
| 20260507071926 | 7 | 335 | 0.0 | 0.0 | 0.00 | 0.00 | 0.00 | 64 | |
| 20260507071423 | 7 | 335 | 0.0 | 0.0 | 0.00 | 0.00 | 0.00 | 65 | |
| 20260507070919 | 8 | 335 | 0.0 | 0.0 | 0.00 | 0.00 | 0.00 | 65 | |
| 20260507070417 | 8 | 335 | 0.0 | 0.0 | 0.00 | 0.00 | 0.00 | 65 | |
| 20260507065913 | 8 | 335 | 0.0 | 0.0 | 0.00 | 0.00 | 0.00 | 63 | |
| 20260507065410 | 8 | 335 | 0.0 | 0.0 | 0.00 | 0.00 | 0.00 | 63 | |
| 20260507064907 | 8 | 335 | 0.0 | 0.0 | 0.00 | 0.00 | 0.00 | 63 | |
| 20260507064405 | 8 | 335 | 0.0 | 0.0 | 0.00 | 0.00 | 0.00 | 62 | |
| 20260507063903 | 8 | 335 | 0.0 | 0.0 | 0.00 | 0.00 | 0.00 | 62 | |
| 20260507063400 | 8 | 335 | 0.0 | 0.0 | 0.00 | 0.00 | 0.00 | 62 | |
| 20260507062856 | 8 | 335 | 0.0 | 0.0 | 0.00 | 0.00 | 0.00 | 64 | |
| 20260507062353 | 8 | 335 | 0.0 | 0.0 | 0.00 | 0.00 | 0.00 | 64 | |
| 20260507061851 | 8 | 335 | 0.0 | 0.0 | 0.00 | 0.00 | 0.00 | 64 | |
| 20260507061349 | 8 | 335 | 0.0 | 0.0 | 0.00 | 0.00 | 0.00 | 64 | |
| 20260507060847 | 8 | 335 | 0.0 | 0.0 | 0.00 | 0.00 | 0.00 | 66 | |
| 20260507060343 | 8 | 335 | 0.0 | 0.0 | 0.00 | 0.00 | 0.00 | 65 | |
| 20260507055840 | 8 | 335 | 0.0 | 0.0 | 0.00 | 0.00 | 0.00 | 65 | |
| 20260507055335 | 8 | 335 | 0.0 | 0.0 | 0.00 | 0.00 | 0.00 | 64 | |
| 20260507054832 | 8 | 335 | 0.0 | 0.0 | 0.00 | 0.00 | 0.00 | 65 | |
| 20260507054328 | 8 | 335 | 0.0 | 0.0 | 0.00 | 0.00 | 0.00 | 64 | |
| 20260507053826 | 8 | 335 | 0.0 | 0.0 | 0.00 | 0.00 | 0.00 | 64 | |
| 20260507053323 | 8 | 335 | 0.0 | 0.0 | 0.00 | 0.00 | 0.00 | 63 | |
| 20260507052822 | 8 | 335 | 0.0 | 0.0 | 0.00 | 0.00 | 0.00 | 64 | |
| 20260507052318 | 8 | 335 | 0.0 | 0.0 | 0.00 | 0.00 | 0.00 | 64 | |
| 20260507051816 | 8 | 335 | 0.0 | 0.0 | 0.00 | 0.00 | 0.00 | 65 | |
| 20260507051314 | 8 | 335 | 0.0 | 0.0 | 0.00 | 0.00 | 0.00 | 66 | |
| 20260507050810 | 8 | 335 | 0.0 | 0.0 | 0.00 | 0.00 | 0.00 | 65 | |
| 20260507050306 | 8 | 335 | 0.0 | 0.0 | 0.00 | 0.00 | 0.00 | 65 | |
| 20260507045803 | 8 | 335 | 0.0 | 0.0 | 0.00 | 0.05 | 0.05 | 65 | |
| 20260507045300 | 8 | 335 | 0.0 | 0.0 | 0.00 | 0.05 | 0.05 | 65 | |
| 20260507044757 | 8 | 335 | 0.0 | 0.0 | 0.00 | 0.05 | 0.05 | 64 | |
| 20260507044253 | 8 | 335 | 0.0 | 0.0 | 0.00 | 0.05 | 0.05 | 64 | |
| 20260507043750 | 8 | 335 | 0.0 | 0.0 | 0.00 | 0.05 | 0.05 | 64 | |
| 20260507043247 | 8 | 335 | 0.0 | 0.0 | 0.00 | 0.05 | 0.05 | 65 | |
| 20260507042742 | 8 | 335 | 0.0 | 0.0 | 0.00 | 0.05 | 0.05 | 65 | |
| 20260507042238 | 8 | 335 | 0.0 | 0.0 | 0.00 | 0.05 | 0.05 | 65 | |
| 20260507041736 | 8 | 335 | 0.0 | 0.0 | 0.00 | 0.05 | 0.05 | 63 | |
| 20260507041232 | 8 | 335 | 0.0 | 0.0 | 0.00 | 0.05 | 0.05 | 64 | |
| 20260507040729 | 8 | 335 | 0.0 | 0.0 | 0.00 | 0.05 | 0.05 | 64 | |
| 20260507040225 | 8 | 335 | 0.0 | 0.0 | 0.00 | 0.05 | 0.05 | 64 | |
| 20260507035721 | 8 | 331 | 0.0 | 0.0 | 0.00 | 0.05 | 0.05 | 64 | |
| 20260507035217 | 8 | 331 | 0.0 | 0.0 | 0.00 | 0.05 | 0.05 | 65 | |
| 20260507034714 | 8 | 331 | 0.0 | 0.0 | 0.00 | 0.05 | 0.05 | 64 | |
| 20260507034212 | 8 | 331 | 0.0 | 0.0 | 0.00 | 0.05 | 0.05 | 64 | |
| 20260507033710 | 7 | 331 | 0.0 | 0.0 | 0.00 | 0.05 | 0.05 | 65 | |
| 20260507033207 | 8 | 330 | 0.0 | 0.0 | 0.00 | 0.05 | 0.05 | 67 | |
| 20260507032704 | 8 | 330 | 0.0 | 0.0 | 0.00 | 0.05 | 0.05 | 67 | |
| 20260507032154 | 8 | 330 | 0.0 | 0.0 | 0.00 | 0.05 | 0.05 | 67 | |
| 20260507031651 | 8 | 330 | 0.0 | 0.0 | 0.00 | 0.05 | 0.05 | 67 | |
| 20260507031148 | 8 | 330 | 0.0 | 0.0 | 0.00 | 0.05 | 0.05 | 65 | |
| 20260507030644 | 8 | 330 | 0.0 | 0.0 | 0.00 | 0.05 | 0.05 | 66 | |
| 20260507030143 | 8 | 330 | 0.0 | 0.0 | 0.00 | 0.05 | 0.05 | 64 | |
| 20260507025639 | 8 | 330 | 0.0 | 0.0 | 0.00 | 0.05 | 0.05 | 64 | |
| 20260507025136 | 8 | 330 | 0.0 | 0.0 | 0.00 | 0.05 | 0.05 | 66 | |
| 20260507024634 | 8 | 330 | 0.0 | 0.0 | 0.00 | 0.05 | 0.05 | 66 | |
| 20260507024131 | 8 | 330 | 0.0 | 0.0 | 0.00 | 0.05 | 0.05 | 63 | |
| 20260507023626 | 8 | 330 | 0.0 | 0.0 | 0.00 | 0.05 | 0.05 | 61 | |
| 20260507023125 | 8 | 330 | 0.0 | 0.0 | 0.00 | 0.05 | 0.05 | 63 | |
| 20260507022621 | 8 | 330 | 0.0 | 0.0 | 0.00 | 0.05 | 0.05 | 63 | |
| 20260507022116 | 9 | 330 | 0.0 | 0.0 | 0.00 | 0.05 | 0.05 | 64 | |
| 20260507021613 | 9 | 330 | 0.0 | 0.0 | 0.00 | 0.05 | 0.05 | 64 | |
| 20260507021109 | 9 | 330 | 0.0 | 0.0 | 0.00 | 0.05 | 0.05 | 62 | |
| 20260507020607 | 9 | 329 | 0.0 | 0.0 | 0.00 | 0.05 | 0.05 | 62 | |
| 20260507015602 | 10 | 329 | 0.0 | 0.0 | 0.00 | 0.05 | 0.05 | 56 | |
| 20260507015059 | 10 | 330 | 0.0 | 0.0 | 0.00 | 0.05 | 0.05 | 54 | |
| 20260507014555 | 10 | 329 | 0.0 | 0.0 | 0.00 | 0.05 | 0.05 | 53 | |
| 20260507014045 | 10 | 329 | 0.0 | 0.0 | 0.00 | 0.05 | 0.05 | 54 | |
| 20260507013542 | 10 | 329 | 0.0 | 0.0 | 0.00 | 0.05 | 0.05 | 55 | |
| 20260507013040 | 11 | 329 | 0.0 | 0.0 | 0.00 | 0.05 | 0.05 | 54 | |
| 20260507012537 | 11 | 325 | 0.0 | 0.0 | 0.00 | 0.05 | 0.05 | 53 | |
| 20260507012032 | 11 | 325 | 0.0 | 0.0 | 0.00 | 0.05 | 0.05 | 48 | |
| 20260507011530 | 11 | 321 | 0.0 | 0.0 | 0.00 | 0.05 | 0.05 | 47 | |
| 20260507011026 | 12 | 321 | 0.0 | 0.0 | 0.00 | 0.05 | 0.05 | 45 | |
| 20260507010521 | 12 | 320 | 0.0 | 0.0 | 0.00 | 0.05 | 0.05 | 43 | |
| 20260507010017 | 12 | 319 | 0.0 | 0.0 | 0.00 | 0.05 | 0.05 | 44 | |
| 20260507005514 | 12 | 315 | 0.0 | 0.0 | 0.00 | 0.05 | 0.05 | 42 | |
| 20260507005011 | 13 | 309 | 0.0 | 0.0 | 0.00 | 0.05 | 0.05 | 43 | |
| 20260507004508 | 13 | 315 | 0.0 | 0.0 | 0.00 | 0.05 | 0.05 | 41 | |
| 20260507004006 | 13 | 254 | 1.6 | 3.2 | 0.00 | 0.05 | 0.05 | 40 | |
| 20260507003501 | 13 | 303 | 0.0 | 0.0 | 0.00 | 0.05 | 0.05 | 42 | |
| 20260507002956 | 13 | 306 | 1.6 | 4.8 | 0.00 | 0.05 | 0.05 | 38 | |
| 20260507002453 | 13 | 306 | 1.6 | 4.8 | 0.00 | 0.05 | 0.05 | 39 | |
| 20260507001949 | 13 | 319 | 0.0 | 4.8 | 0.00 | 0.05 | 0.05 | 40 | |
| 20260507001446 | 13 | 276 | 1.6 | 3.2 | 0.00 | 0.05 | 0.05 | 39 | |
| 20260507000943 | 13 | 290 | 3.2 | 4.8 | 0.00 | 0.05 | 0.05 | 37 | |
| 20260507000438 | 13 | 276 | 0.0 | 4.8 | 0.00 | 0.05 | 0.05 | 40 | |
| 20260506235934 | 13 | 296 | 4.8 | 4.8 | 0.00 | 0.05 | 0.05 | 38 | |
| 20260506235432 | 13 | 312 | 1.6 | 8.0 | 0.00 | 0.05 | 0.05 | 37 | |
| 20260506234927 | 14 | 302 | 3.2 | 4.8 | 0.00 | 0.05 | 0.05 | 35 | |
| 20260506234426 | 14 | 244 | 9.7 | 11.3 | 0.00 | 0.05 | 0.05 | 35 | |
| 20260506233923 | 14 | 254 | 3.2 | 9.7 | 0.00 | 0.05 | 0.05 | 38 | |
| 20260506233420 | 14 | 160 | 4.8 | 9.7 | 0.00 | 0.05 | 0.05 | 37 | |
| 20260506232916 | 14 | 203 | 4.8 | 11.3 | 0.00 | 0.05 | 0.05 | 38 | |
| 20260506232412 | 14 | 288 | 1.6 | 4.8 | 0.00 | 0.05 | 0.05 | 36 | |
| 20260506231908 | 14 | 289 | 3.2 | 4.8 | 0.00 | 0.05 | 0.05 | 37 | |
| 20260506231406 | 14 | 304 | 0.0 | 4.8 | 0.00 | 0.05 | 0.05 | 38 | |
| 20260506230903 | 14 | 308 | 3.2 | 4.8 | 0.00 | 0.05 | 0.05 | 37 | |
| 20260506230400 | 14 | 294 | 3.2 | 4.8 | 0.00 | 0.05 | 0.05 | 38 | |
| 20260506225856 | 14 | 323 | 0.0 | 3.2 | 0.00 | 0.05 | 0.05 | 38 | |
| 20260506225353 | 14 | 274 | 1.6 | 9.7 | 0.00 | 0.05 | 0.05 | 39 | |
| 20260506224850 | 14 | 228 | 3.2 | 4.8 | 0.00 | 0.05 | 0.05 | 39 | |
| 20260506224348 | 14 | 260 | 0.0 | 3.2 | 0.00 | 0.05 | 0.05 | 39 | |
| 20260506223844 | 14 | 293 | 3.2 | 8.0 | 0.00 | 0.05 | 0.05 | 38 | |
| 20260506223339 | 14 | 321 | 0.0 | 3.2 | 0.00 | 0.05 | 0.05 | 39 | |
| 20260506222836 | 14 | 261 | 3.2 | 11.3 | 0.00 | 0.05 | 0.05 | 38 | |
| 20260506222331 | 14 | 309 | 4.8 | 8.0 | 0.00 | 0.05 | 0.05 | 38 | |
| 20260506221825 | 14 | 207 | 4.8 | 8.0 | 0.00 | 0.05 | 0.05 | 37 | |
| 20260506221322 | 14 | 280 | 6.4 | 9.7 | 0.00 | 0.05 | 0.05 | 35 | |
| 20260506220819 | 14 | 263 | 1.6 | 3.2 | 0.00 | 0.05 | 0.05 | 38 | |
| 20260506220314 | 14 | 299 | 1.6 | 4.8 | 0.00 | 0.05 | 0.05 | 37 | |
| 20260506215811 | 14 | 249 | 8.0 | 11.3 | 0.00 | 0.05 | 0.05 | 37 | |
| 20260506215307 | 14 | 216 | 1.6 | 9.7 | 0.00 | 0.05 | 0.05 | 39 | |
| 20260506214803 | 15 | 172 | 6.4 | 8.0 | 0.00 | 0.05 | 0.05 | 39 | |
| 20260506214300 | 14 | 296 | 4.8 | 8.0 | 0.00 | 0.05 | 0.05 | 38 | |
| 20260506213758 | 14 | 309 | 4.8 | 8.0 | 0.00 | 0.05 | 0.05 | 37 | |
| 20260506213254 | 14 | 270 | 4.8 | 9.7 | 0.00 | 0.05 | 0.05 | 39 | |
| 20260506212752 | 14 | 304 | 4.8 | 4.8 | 0.00 | 0.05 | 0.05 | 37 | |
| 20260506212247 | 14 | 279 | 6.4 | 11.3 | 0.00 | 0.05 | 0.05 | 40 | |
| 20260506211743 | 15 | 313 | 0.0 | 4.8 | 0.00 | 0.05 | 0.05 | 39 | |
| 20260506211240 | 14 | 287 | 4.8 | 11.3 | 0.00 | 0.05 | 0.05 | 38 | |
| 20260506210737 | 14 | 327 | 6.4 | 12.9 | 0.00 | 0.05 | 0.05 | 38 | |
| 20260506210233 | 14 | 310 | 4.8 | 11.3 | 0.00 | 0.05 | 0.05 | 37 | |
| 20260506205730 | 15 | 323 | 6.4 | 8.0 | 0.00 | 0.05 | 0.05 | 39 | |
| 20260506205226 | 14 | 303 | 0.0 | 3.2 | 0.00 | 0.05 | 0.05 | 42 | |
| 20260506204718 | 14 | 289 | 3.2 | 8.0 | 0.00 | 0.05 | 0.05 | 38 | |
| 20260506204215 | 13 | 301 | 1.6 | 3.2 | 0.00 | 0.05 | 0.05 | 41 | |
| 20260506203713 | 13 | 315 | 0.0 | 8.0 | 0.00 | 0.05 | 0.05 | 38 | |
| 20260506203210 | 13 | 127 | 1.6 | 9.7 | 0.00 | 0.05 | 0.05 | 41 | |
| 20260506202708 | 14 | 221 | 3.2 | 11.3 | 0.00 | 0.05 | 0.05 | 41 | |
| 20260506202203 | 14 | 253 | 8.0 | 11.3 | 0.00 | 0.05 | 0.05 | 37 | |
| 20260506201701 | 13 | 286 | 4.8 | 12.9 | 0.00 | 0.05 | 0.05 | 39 | |
| 20260506201157 | 14 | 205 | 4.8 | 9.7 | 0.00 | 0.05 | 0.05 | 37 | |
| 20260506200654 | 14 | 287 | 3.2 | 8.0 | 0.00 | 0.05 | 0.05 | 38 | |
| 20260506200150 | 14 | 307 | 6.4 | 9.7 | 0.00 | 0.05 | 0.05 | 38 | |
| 20260506195647 | 14 | 320 | 4.8 | 11.3 | 0.00 | 0.05 | 0.05 | 39 | |
| 20260506195143 | 13 | 301 | 0.0 | 4.8 | 0.00 | 0.05 | 0.05 | 43 | |
| 20260506194641 | 14 | 325 | 0.0 | 8.0 | 0.00 | 0.05 | 0.05 | 43 | |
| 20260506194137 | 14 | 210 | 3.2 | 4.8 | 0.00 | 0.05 | 0.05 | 41 | |
| 20260506193635 | 13 | 322 | 4.8 | 8.0 | 0.00 | 0.05 | 0.05 | 38 | |
| 20260506193132 | 13 | 307 | 3.2 | 4.8 | 0.00 | 0.05 | 0.05 | 40 | |
| 20260506192628 | 13 | 285 | 6.4 | 11.3 | 0.00 | 0.05 | 0.05 | 37 | |
| 20260506192124 | 13 | 286 | 4.8 | 8.0 | 0.00 | 0.05 | 0.05 | 38 | |
| 20260506191621 | 13 | 184 | 8.0 | 12.9 | 0.00 | 0.05 | 0.05 | 40 | |
| 20260506191117 | 13 | 329 | 1.6 | 8.0 | 0.00 | 0.05 | 0.05 | 40 | |
| 20260506190615 | 13 | 313 | 1.6 | 9.7 | 0.00 | 0.05 | 0.05 | 40 | |
| 20260506190111 | 13 | 221 | 3.2 | 4.8 | 0.00 | 0.05 | 0.05 | 44 | |
| 20260506185609 | 13 | 297 | 4.8 | 4.8 | 0.00 | 0.05 | 0.05 | 38 | |
| 20260506185105 | 13 | 296 | 3.2 | 4.8 | 0.00 | 0.05 | 0.05 | 37 | |
| 20260506184602 | 13 | 293 | 3.2 | 4.8 | 0.00 | 0.05 | 0.05 | 46 | |
| 20260506184059 | 13 | 236 | 4.8 | 8.0 | 0.00 | 0.05 | 0.05 | 42 | |
| 20260506183556 | 13 | 293 | 1.6 | 4.8 | 0.00 | 0.05 | 0.05 | 42 | |
| 20260506183052 | 13 | 290 | 3.2 | 4.8 | 0.00 | 0.05 | 0.05 | 39 | |
| 20260506182550 | 12 | 283 | 1.6 | 8.0 | 0.00 | 0.05 | 0.05 | 47 | |
| 20260506182047 | 12 | 272 | 6.4 | 9.7 | 0.00 | 0.05 | 0.05 | 41 | |
| 20260506181545 | 12 | 264 | 3.2 | 9.7 | 0.00 | 0.05 | 0.05 | 43 | |
| 20260506181041 | 12 | 295 | 8.0 | 12.9 | 0.00 | 0.05 | 0.05 | 42 | |
| 20260506180537 | 12 | 290 | 3.2 | 8.0 | 0.00 | 0.05 | 0.05 | 41 | |
| 20260506180035 | 12 | 297 | 0.0 | 0.0 | 0.00 | 0.05 | 0.05 | 42 | |
| 20260506175531 | 12 | 246 | 4.8 | 9.7 | 0.00 | 0.05 | 0.05 | 45 | |
| 20260506175027 | 12 | 319 | 1.6 | 8.0 | 0.00 | 0.05 | 0.05 | 43 | |
| 20260506174526 | 12 | 295 | 4.8 | 8.0 | 0.00 | 0.05 | 0.05 | 43 | |
| 20260506174022 | 11 | 290 | 0.0 | 3.2 | 0.00 | 0.05 | 0.05 | 47 | |
| 20260506173520 | 11 | 239 | 4.8 | 4.8 | 0.00 | 0.05 | 0.05 | 44 | |
| 20260506173017 | 12 | 296 | 1.6 | 11.3 | 0.00 | 0.05 | 0.05 | 43 | |
| 20260506172514 | 12 | 306 | 0.0 | 4.8 | 0.00 | 0.05 | 0.05 | 46 | |
| 20260506172010 | 12 | 313 | 1.6 | 9.7 | 0.00 | 0.05 | 0.05 | 41 | |
| 20260506171507 | 12 | 294 | 3.2 | 8.0 | 0.00 | 0.05 | 0.05 | 41 | |
| 20260506171004 | 12 | 286 | 1.6 | 9.7 | 0.00 | 0.05 | 0.05 | 43 | |
| 20260506170502 | 12 | 283 | 3.2 | 3.2 | 0.00 | 0.05 | 0.05 | 45 | |
| 20260506170000 | 12 | 325 | 3.2 | 9.7 | 0.00 | 0.05 | 0.05 | 42 | |
| 20260506165458 | 12 | 245 | 3.2 | 4.8 | 0.00 | 0.05 | 0.05 | 44 | |
| 20260506164954 | 12 | 215 | 3.2 | 8.0 | 0.00 | 0.05 | 0.05 | 44 | |
| 20260506164451 | 11 | 317 | 1.6 | 8.0 | 0.00 | 0.05 | 0.05 | 44 |